Regional Weather Roundup
Issued by NWS

Home | Current Version | Previous Version | Graphics & Text | Print | Product List | Glossary On
Versions: 1 2 3 4 5 6 7 8 9 10 11 12 13 14 15 16 17 18 19 20 21 22 23 24 25 26 27
000
ASUS45 KBOU 260707
RWRCO

WEATHER ROUNDUP FOR COLORADO
NATIONAL WEATHER SERVICE DENVER/BOULDER CO
100 AM MDT FRI AUG 26 2016

NOTE: "FAIR" INDICATES FEW OR NO CLOUDS BELOW 12000 FEET WITH NO
SIGNIFICANT WEATHER AND/OR OBSTRUCTIONS TO VISIBILITY.

COZ001>005-013-030-031-260800-
...NORTHWEST COLORADO...

CITY           SKY/WX    TMP DP  RH WIND       PRES   REMARKS
CRAIG          FAIR      55  40  56 E5        30.23S
HAYDEN         FAIR      54  37  54 E10       30.25S
MEEKER         FAIR      51  40  65 N6        30.26F
MOUNT WERNER   NOT AVBL
STEAMBOAT SPGS FAIR      51  40  65 E7        30.27S
WALDEN         MOCLDY    50  37  62 S5        30.34S
$$

COZ006>008-011-260800-
...WEST CENTRAL VALLEYS...

CITY           SKY/WX    TMP DP  RH WIND       PRES   REMARKS
GRAND JUNCTION FAIR      56  49  77 E13       30.21S
MONTROSE       LGT RAIN  54  46  74 S13       30.29F
EAGLE          MOCLDY    48  46  93 CALM      30.33F
RIFLE          FAIR      52  50  93 W7        30.26F
DELTA          NOT AVBL
NUCLA          NOT AVBL
$$

COZ017>023-064>068-260800-
...SOUTHWEST COLORADO...

CITY           SKY/WX    TMP DP  RH WIND       PRES   REMARKS
DURANGO        CLOUDY    53  46  77 NW3       30.29F
CORTEZ         FAIR      54  51  90 CALM      30.26F
PAGOSA SPRINGS NOT AVBL
TELLURIDE      NOT AVBL
WOLF CREEK PAS LGT RAIN  36  36 100 SW10      30.57F
$$

COZ009-010-012-014-032>034-037-058>063-260800-
...CENTRAL COLORADO...

CITY           SKY/WX    TMP DP  RH WIND       PRES   REMARKS
ASPEN          CLOUDY    44  42  93 SW3       30.35F
BUENA VISTA    NOT AVBL
COPPER MTN     CLOUDY    39  32  75 MISG      30.52F
BERTHOUD PASS  MOCLDY    32  18  55 E9        30.53F WCI  24
COTTONWOOD PAS LGT RAIN  45  43  93 NW5       30.45F
GUNNISON       CLOUDY    48  43  81 CALM      30.41F
KREMMLING      CLOUDY    50  37  62 SE3       30.34F
LEADVILLE      CLOUDY    38  36  92 CALM      30.44F
MONARCH PASS   HVY SNOW  34  32  93 W18       30.64F VSB 1/4 WCI  23
SALIDA         NOT AVBL
SUNLIGHT       MOCLDY    41  39  93 N10G21    30.49F
WILKERSON PASS LGT RAIN  37  36  93 SW3       30.52F VSB 1
$$

COZ069>075-260800-
...SAN LUIS VALLEY/SANGRE DE CRISTO MOUNTAINS...

CITY           SKY/WX    TMP DP  RH WIND       PRES   REMARKS
ALAMOSA        LGT RAIN  49  45  86 NE3       30.34S
LA VETA PASS   CLOUDY    41  39  93 SE5       30.47R
SAGUACHE       CLOUDY    46  45  93 N14       30.37S
$$

COZ035-036-038>040-260800-
...NORTHERN COLORADO FRONT RANGE...

CITY           SKY/WX    TMP DP  RH WIND       PRES   REMARKS
DENVER INTL AP CLOUDY    52  47  83 S9        30.20F
DMNS CITY PARK   N/A     56  49  76 SW6       30.19F
AURORA         MOCLDY    54  47  75 S10       30.21F
FRONT RANGE AP NOT AVBL
ERIE MUNI ARPT MOCLDY    56  51  82 CALM      30.20F
BOULDER MUN AP MOCLDY    55  52  88 W3        30.20F
CENTENNIAL     MOCLDY    54  44  69 SW8       30.23F
BROOMFIELD     FAIR      55  50  82 CALM      30.22F
FORT COLLINS   FAIR      54  52  94 S6        30.20F
LONGMONT       FAIR      57  53  85 CALM      30.21F
$$

COZ041-046-047-076>085-087-088-260800-
...PIKES PEAK/PALMER DIVIDE AND SOUTHERN FOOTHILLS...

CITY           SKY/WX    TMP DP  RH WIND       PRES   REMARKS
COLO. SPRINGS  FAIR      52  44  74 NE6       30.29F
A. F. ACADEMY  CLOUDY    49  47  90 N5        30.29F
SCHRIEVER AFB  NOT AVBL
ELLICOTT       NOT AVBL
FALCON         NOT AVBL
FORT CARSON    MOCLDY    54  48  82 E3        30.26F
LIMON          CLOUDY    56  51  84 S3        30.25F
MONUMENT HILL  FAIR      45  43  93 MISG      30.32F
TRINIDAD       FAIR      55  50  83 W7        30.27S
$$

COZ042>045-048>051-090-091-260800-
...NORTHEAST COLORADO...

CITY           SKY/WX    TMP DP  RH WIND       PRES   REMARKS
GREELEY ARPT   FAIR      52  48  87 CALM      30.20F
AKRON          MOCLDY    61  53  75 S13       30.21F
BURLINGTON     FAIR      56  49  77 SE7       30.22F
WRAY           NOT AVBL
STERLING       CLOUDY    61  50  67 S5        30.19S
HOLYOKE        FAIR      55  50  82 SE7       30.20F
FORT MORGAN    NOT AVBL
$$

COZ086-089-092>099-260800-
...SOUTHEAST COLORADO...

CITY           SKY/WX    TMP DP  RH WIND       PRES   REMARKS
PUEBLO         FAIR      57  52  83 CALM      30.22F
LA JUNTA       FAIR      60  58  92 W6        30.20R
LAMAR          FAIR      64  58  80 SE9       30.14F
SPRINGFIELD      N/A     60  59  96 NW7       30.23S
$$




USA.gov is the U.S. government's official web portal to all federal, state and local government web resources and services.